Lapse_Rate
0.3 0.1 -0.3 -0.6 -0.7 -0.8 -0.9 -0.9 -0.8 -0.8 -0.6 -0.7 -0.6 -0.8 -0.6 -0.2 -1.0 2.3 8.0 7.8 8.0 4.2 3.5 9.8 9.8 9.5 9.5 8.7 8.4 8.2 6.5 6.5 6.5 6.5 6.5 7.3 6.6 7.8 8.3 7.6 8.0 8.3 7.9 8.8 9.2
0.2 -0.1 -0.4 -0.8 -1.0 -1.1 -1.3 -1.2 -1.0 -1.1 -1.1 -1.1 -1.1 -0.7 -0.5 -0.9 3.7 9.0 6.5 4.4 3.5 3.0 7.7 9.3 8.8 9.0 8.5 8.3 8.3 6.8 6.5 6.5 6.5 6.5 6.5 6.9 7.0 7.3 7.2 7.2 7.2 7.7 8.5 9.1 9.4
0.2 -0.2 -0.6 -1.0 -1.2 -1.6 -1.6 -1.4 -1.2 -1.2 -1.3 -1.5 -1.1 -1.0 -0.9 0.0 8.5 8.5 4.8 3.7 3.2 3.1 9.4 9.7 9.3 8.8 7.7 8.0 7.7 7.1 6.5 6.5 6.8 7.2 7.4 7.0 6.9 7.8 6.5 6.5 7.4 7.4 7.9 8.4 9.0
0.1 -0.2 -0.6 -1.2 -1.4 -1.6 -1.5 -1.4 -1.5 -1.4 -1.5 -1.7 -1.3 -1.0 -1.0 4.2 6.5 9.1 5.3 4.4 3.7 5.8 9.4 9.3 8.8 7.8 6.9 6.5 7.7 6.5 7.0 7.0 7.0 7.4 7.1 6.5 7.4 6.8 7.2 6.8 8.3 8.5 8.7 8.7 8.9
-0.1 -0.5 -0.8 -1.2 -1.5 -1.5 -1.4 -1.7 -2.0 -2.1 -2.1 -1.4 -1.2 -0.8 1.7 8.3 8.2 9.9 5.4 4.7 6.1 7.2 9.1 8.8 8.1 7.8 6.5 6.8 7.1 6.5 6.5 7.1 7.4 7.3 7.4 7.6 6.9 6.7 7.0 8.1 8.6 8.8 8.7 8.4 8.7
-0.3 -0.7 -0.9 -1.4 -1.6 -1.4 -1.4 -1.9 -2.4 -2.7 -2.1 -1.2 -0.8 -0.3 6.3 6.8 9.9 9.9 10.0 8.1 9.5 9.3 9.2 9.2 8.3 8.5 7.5 7.0 6.6 7.2 7.2 6.7 7.0 7.2 7.3 6.7 6.7 7.3 7.3 8.3 8.3 8.5 8.5 8.7 8.8
-0.2 -0.5 -0.9 -1.4 -1.6 -1.6 -1.7 -2.2 -2.0 -2.2 -1.4 -0.3 -0.9 2.2 8.7 8.1 10.0 10.0 10.1 9.8 10.0 9.7 9.0 9.4 9.2 8.2 7.9 6.5 7.8 7.4 6.5 6.5 6.8 7.0 6.6 7.3 6.5 6.5 7.7 8.2 8.0 8.2 8.4 8.3 8.4
-0.1 -0.5 -0.8 -1.2 -1.5 -1.7 -2.0 -2.2 -1.0 -0.4 -0.8 -0.5 -0.3 7.4 7.8 10.0 10.0 9.9 10.0 9.7 10.1 10.0 9.5 9.6 9.5 8.4 8.0 8.0 7.1 6.5 6.5 6.5 6.5 6.6 7.0 6.9 6.5 6.5 8.0 7.9 7.7 8.0 8.3 8.4 8.5
0.1 -0.4 -0.8 -1.1 -1.5 -1.6 -2.2 -2.3 -0.1 0.2 0.1 0.3 3.9 8.7 7.5 6.1 9.1 9.8 9.9 9.1 9.6 9.6 9.5 9.6 9.1 8.0 7.8 6.5 6.5 6.5 6.5 6.5 6.5 6.5 6.5 6.5 6.5 6.5 7.9 7.8 7.6 7.9 8.2 8.4 8.2
0.3 -0.1 -0.8 -1.1 -1.5 -1.6 -2.2 -2.1 0.3 0.1 1.3 6.8 9.2 8.1 8.6 8.0 9.2 9.5 10.0 9.6 8.9 8.8 8.4 8.2 7.9 6.5 6.5 6.5 6.5 6.5 6.5 6.5 6.5 6.5 6.5 6.5 6.5 6.5 7.7 7.6 7.5 7.8 8.1 8.2 8.4
0.8 0.2 -0.6 -1.2 -1.4 -1.5 1.2 6.5 7.4 8.2 8.8 7.9 7.9 7.8 8.3 9.2 9.7 9.0 9.6 9.1 8.9 8.1 6.5 7.6 6.5 6.5 6.5 6.5 6.5 6.5 6.5 6.5 6.5 6.5 6.5 6.5 6.5 6.5 7.1 7.4 7.2 7.6 7.9 8.1 8.4
0.6 0.2 -0.5 -1.1 -1.4 -1.7 2.4 8.9 8.8 9.2 7.2 8.7 8.5 8.5 8.9 9.2 7.7 8.5 9.5 7.8 7.3 6.5 6.7 6.5 6.5 6.5 6.5 6.5 6.5 6.5 6.5 6.5 6.5 6.5 6.5 6.5 6.5 6.5 6.5 6.8 7.4 7.5 7.9 8.1 8.4
0.8 0.2 -0.7 -1.4 -1.8 2.9 9.6 9.2 10.2 10.0 7.2 7.7 8.4 8.1 8.3 8.8 7.5 7.7 8.7 8.0 6.6 6.5 6.5 6.5 6.5 6.5 6.5 6.5 6.5 6.5 6.5 6.5 6.5 6.5 6.5 6.5 6.5 6.5 6.5 7.1 7.5 7.9 8.1 8.3 8.3
1.1 0.4 -0.8 -2.1 2.6 9.7 9.1 10.1 10.3 10.0 6.5 6.5 7.0 7.9 8.5 8.4 7.0 8.8 8.9 7.9 6.7 6.5 6.5 6.5 6.6 6.5 6.5 6.5 6.5 6.5 6.5 6.5 6.5 6.5 6.5 6.5 6.5 6.5 6.5 6.5 6.5 7.4 7.8 8.2 8.3
1.1 0.1 -1.1 -2.6 7.3 9.1 9.5 10.4 10.4 9.5 6.5 6.5 6.9 9.2 8.5 7.4 7.6 7.6 9.0 8.0 6.5 6.5 6.5 6.5 6.5 6.5 6.5 6.5 6.5 6.5 6.5 6.5 6.5 6.5 6.5 6.5 6.5 6.5 6.5 6.5 6.5 6.7 7.6 8.1 8.5
1.1 -0.2 -0.7 5.6 9.2 10.0 10.1 10.4 9.6 6.5 6.5 6.5 7.0 6.6 6.6 7.2 7.2 7.8 7.7 8.4 7.9 6.5 6.5 6.5 7.3 6.5 6.5 6.5 6.5 6.5 6.5 6.5 6.5 6.5 6.5 6.5 6.5 6.5 6.5 6.5 6.5 6.8 7.6 7.9 8.3
0.7 -0.2 1.2 7.8 9.1 10.0 10.4 9.3 6.5 6.5 6.5 6.5 6.5 6.5 6.5 6.5 6.5 6.5 6.5 6.5 6.5 6.5 6.5 6.5 6.5 6.5 6.7 6.5 6.5 6.5 6.5 6.5 6.5 6.5 6.5 6.5 6.5 6.5 6.5 6.5 6.5 6.5 7.4 7.9 8.3
-0.4 -1.2 5.5 10.0 10.0 10.1 9.7 6.7 6.5 6.5 6.5 6.5 6.5 6.5 6.5 6.5 6.5 6.5 6.5 6.5 6.5 6.5 6.5 6.5 6.5 6.5 6.5 6.5 6.5 6.5 6.5 6.5 6.5 6.5 6.5 6.5 6.5 6.5 6.5 6.8 6.5 6.5 7.2 8.1 8.3
-0.8 9.1 9.9 10.3 9.9 10.2 8.4 6.5 6.5 6.5 6.5 6.5 6.5 6.5 6.5 6.5 6.5 6.5 6.5 6.5 6.5 6.5 6.5 6.5 6.5 6.5 6.5 6.5 6.5 6.5 6.5 6.5 6.5 6.5 6.5 6.5 6.5 6.5 6.5 6.5 6.7 6.9 7.1 7.2 8.0
7.0 9.5 9.4 10.1 10.0 9.5 6.8 6.5 6.5 6.7 6.6 6.5 6.5 6.5 6.5 6.5 6.5 6.5 6.5 6.5 6.5 6.6 6.9 6.5 6.5 6.5 6.5 6.7 6.6 6.5 6.5 6.5 6.5 6.5 6.5 6.5 6.5 6.5 6.5 6.5 6.5 6.5 6.9 7.5 8.3
7.3 8.4 9.7 10.1 10.1 8.3 6.5 6.5 6.5 7.5 7.4 6.5 6.5 6.5 6.5 6.5 6.5 6.5 6.5 6.5 6.5 6.5 6.8 6.5 6.5 6.5 6.5 6.5 6.5 6.5 6.5 6.5 6.5 6.5 6.5 6.5 6.5 6.5 6.5 6.5 6.5 6.5 7.2 7.6 7.8
9.1 6.5 10.0 10.3 7.2 7.1 6.5 6.5 4.1 6.8 7.5 6.6 6.6 6.5 6.5 6.5 6.5 6.5 6.5 6.5 7.2 7.0 6.5 6.5 6.5 6.5 6.5 6.5 6.5 6.5 6.5 6.5 6.5 6.5 6.5 6.5 6.5 6.5 6.5 6.5 6.7 6.9 7.4 7.8 7.9
8.2 8.1 10.0 9.8 6.5 6.5 6.7 6.5 7.1 6.5 6.5 6.5 6.5 6.5 6.5 6.5 6.5 6.5 6.5 7.0 7.3 6.6 6.5 6.5 6.5 6.5 6.5 6.5 6.5 6.5 6.5 6.5 6.5 6.5 6.5 6.5 6.5 6.5 6.5 6.5 6.9 7.0 7.4 7.6 7.8
8.5 6.5 8.1 8.7 8.2 6.6 6.5 6.5 6.5 7.5 6.9 7.1 6.6 6.8 6.5 6.5 6.5 6.5 6.5 6.6 7.3 7.1 7.0 6.9 6.5 6.5 6.5 6.5 6.5 6.5 6.5 6.5 6.5 6.5 6.5 6.5 6.5 6.5 6.5 6.5 6.6 7.0 7.4 7.7 7.8
8.6 7.1 7.9 6.5 6.8 6.7 6.6 6.5 6.5 6.5 7.1 7.4 6.5 6.5 6.5 6.5 6.5 6.5 6.5 6.5 6.9 7.0 6.9 6.5 6.5 6.5 6.5 6.5 6.5 6.5 6.5 6.5 6.5 6.5 6.5 6.5 6.5 6.5 6.5 6.5 6.7 7.2 7.3 7.4 7.5
8.0 7.5 8.1 7.6 7.5 6.7 6.5 6.5 6.5 6.5 6.6 6.5 6.5 6.5 6.5 6.5 6.5 6.5 6.5 6.5 6.5 6.6 6.5 6.5 6.5 6.5 6.5 6.5 6.5 6.5 6.5 6.5 6.5 6.5 6.5 6.5 6.5 6.5 6.9 7.1 7.0 7.1 7.3 7.2 7.5
9.5 9.3 8.3 5.5 6.7 6.5 6.5 6.5 6.5 6.8 7.1 7.2 6.8 6.5 6.5 6.6 7.4 7.5 7.6 7.5 7.0 6.5 6.5 6.5 6.5 6.5 6.5 6.5 6.5 6.5 6.5 6.5 6.5 6.5 6.5 6.5 6.5 6.5 6.5 6.5 6.9 7.1 7.3 7.4 7.6
Wind_Speed
23 24 24 24 23 22 21 20 17 16 14 13 11 9 9 8 9 11 11 1 4 6 8 17 21 15 16 14 11 11 7 7 4 2 1 11 13 14 8 10 8 7 9 25 26
24 25 25 25 24 23 21 20 20 16 14 12 11 9 7 7 12 14 6 4 4 8 15 21 21 18 14 18 13 9 6 5 8 3 11 12 10 10 10 11 8 11 24 28 28
25 26 26 26 25 24 22 20 19 18 14 11 10 8 7 9 9 5 6 4 9 12 20 18 17 17 18 13 17 16 11 7 11 9 5 15 14 13 8 11 13 17 26 27 28
26 26 26 27 27 24 23 21 18 18 15 12 8 7 6 10 1 9 4 9 14 17 20 19 17 18 17 17 16 15 12 4 10 9 7 7 14 11 11 6 16 21 27 28 28
27 27 27 27 27 25 23 23 20 17 14 11 7 7 6 8 1 5 5 11 17 18 21 21 20 19 18 15 13 18 10 8 7 8 10 17 12 8 14 11 15 22 26 27 26
28 28 27 27 28 26 24 22 20 14 11 9 7 9 7 11 4 3 0 9 19 23 22 21 16 18 15 17 15 10 17 10 7 10 12 12 7 10 12 13 17 21 25 26 27
28 29 29 28 29 27 25 22 17 7 6 4 10 9 10 6 1 3 5 8 16 23 20 20 17 17 11 14 14 17 11 15 15 12 13 11 12 15 11 16 18 20 22 25 24
29 29 30 30 29 27 25 19 11 3 2 6 8 12 2 1 5 5 4 9 16 17 16 15 16 13 19 10 6 17 18 16 18 19 16 14 16 18 18 17 19 20 21 23 25
30 29 29 30 30 26 22 17 8 5 6 8 8 9 7 6 7 3 4 10 15 9 12 12 12 15 19 13 12 15 16 21 18 23 18 19 5 8 17 19 19 20 22 23 22
30 31 30 30 31 30 21 10 5 7 9 10 9 9 3 3 2 1 4 7 15 12 13 11 10 16 16 16 16 17 19 19 19 14 20 19 14 18 25 20 20 20 22 23 23
29 31 31 31 30 31 17 4 6 7 18 7 6 2 4 3 8 2 7 12 13 14 16 19 15 19 22 20 21 18 18 20 17 12 17 20 14 16 18 19 20 20 21 23 24
30 32 31 32 30 31 12 6 6 6 7 6 2 4 1 3 5 6 9 12 12 17 19 13 21 20 18 18 19 20 14 18 18 16 14 16 15 16 19 18 20 20 21 23 23
31 33 34 32 31 12 4 5 6 5 7 11 4 2 2 7 2 5 9 12 11 19 21 21 11 20 21 19 17 19 19 17 14 17 16 15 12 16 16 17 19 19 21 22 24
30 32 32 32 8 3 2 7 7 3 6 12 9 4 7 4 8 1 1 8 9 15 19 20 22 9 22 21 19 19 18 19 16 17 15 20 14 10 10 18 20 20 19 22 24
30 31 31 10 12 4 7 8 5 5 5 6 9 4 3 9 5 8 1 7 13 12 11 16 18 23 19 20 19 18 17 17 18 18 17 20 17 19 34 27 23 22 22 22 24
30 31 27 5 10 5 9 6 5 7 2 7 3 3 11 5 6 2 5 6 7 10 15 17 15 15 21 17 15 18 18 17 15 15 18 24 20 19 15 13 26 25 24 23 24
31 31 17 10 7 11 8 7 7 7 3 7 3 5 4 4 7 5 4 10 9 12 16 18 21 17 13 17 21 16 18 13 14 15 19 24 23 19 17 25 27 28 25 25 24
34 28 12 6 12 8 8 9 8 7 3 5 2 4 8 3 9 4 9 10 9 11 14 12 16 21 17 21 19 22 21 14 24 15 21 25 27 23 25 16 14 17 26 26 26
38 8 5 6 7 6 8 9 8 12 6 7 6 10 11 7 6 3 9 12 5 3 13 10 20 3 5 15 21 21 24 26 25 21 17 19 28 24 25 25 17 12 22 17 28
7 5 6 11 4 7 8 4 4 7 7 6 10 4 10 4 5 8 7 7 1 3 8 9 13 16 4 6 17 19 16 21 18 25 26 20 23 19 25 24 26 18 13 24 25
6 5 7 12 5 7 6 7 3 6 8 7 9 10 7 11 9 10 12 5 3 5 6 15 10 16 17 12 17 16 20 18 19 23 20 19 15 18 24 25 22 25 18 17 20
5 4 8 9 6 3 6 5 1 5 0 4 4 7 9 12 13 10 13 8 7 6 10 9 13 14 23 13 15 21 24 24 17 22 21 21 16 6 19 24 21 20 23 22 20
3 4 7 8 3 6 4 5 4 6 6 6 5 1 8 7 7 9 10 10 4 7 6 9 10 13 19 15 17 19 23 17 19 22 24 20 19 14 6 3 11 20 22 21 22
5 1 4 7 6 6 1 6 3 7 4 5 8 7 6 7 8 5 8 4 6 11 9 8 14 17 15 8 13 14 26 24 22 18 22 21 22 24 10 5 10 13 17 21 21
5 5 5 8 9 8 9 4 8 10 9 6 3 4 6 8 8 12 13 14 11 10 9 10 18 19 19 21 15 17 19 15 22 19 20 21 25 23 20 13 7 5 8 8 5
4 3 4 7 8 9 6 8 5 5 5 5 7 10 7 9 12 13 10 12 12 8 12 15 17 18 20 20 17 20 20 19 22 22 21 21 25 23 17 21 16 6 9 3 6
4 3 4 5 4 2 5 4 5 6 3 9 9 10 11 12 11 12 14 14 13 12 13 14 8 13 19 19 22 22 24 24 24 25 23 22 22 19 18 9 16 6 3 5 8
Wind_Direction
348 345 343 344 341 337 332 327 323 320 319 316 308 291 277 275 272 235 234 353 193 228 225 183 190 189 203 210 204 275 262 296 327 112 232 142 137 146 143 141 160 162 153 144 159
348 344 343 342 340 335 331 326 320 318 316 312 304 285 269 262 258 244 130 73 305 267 211 179 185 188 200 213 205 223 256 1 251 346 177 142 147 139 169 153 152 124 118 140 163
346 343 341 341 340 335 331 326 319 315 312 306 296 275 261 254 266 155 81 179 247 238 228 189 192 194 209 217 214 221 246 302 343 17 114 167 167 164 167 173 147 139 138 151 157
344 342 340 339 338 336 329 324 320 310 304 297 280 255 245 240 312 102 148 215 219 218 231 199 201 202 218 212 221 245 246 223 277 97 169 184 175 158 99 306 135 139 150 160 164
340 339 338 338 336 334 329 323 318 303 296 282 254 223 225 214 169 57 213 186 189 201 215 199 205 206 219 223 222 231 245 260 182 231 176 198 189 157 142 103 125 141 150 167 170
336 337 337 337 336 334 329 326 318 304 286 269 220 193 241 240 62 14 333 182 188 196 210 203 212 214 235 250 232 230 239 247 243 190 215 209 187 173 146 132 133 151 157 175 176
336 336 336 337 336 333 329 328 325 307 283 193 184 222 255 46 344 352 190 173 184 198 206 205 218 219 237 258 236 254 251 228 236 197 222 230 212 193 136 147 147 160 163 172 183
335 335 335 334 334 331 325 323 324 324 196 181 206 251 36 41 305 207 204 186 173 209 230 203 224 262 236 256 259 236 241 245 209 217 217 221 216 164 150 157 156 160 166 169 185
333 333 333 332 330 325 315 306 277 249 226 224 233 228 120 140 214 110 251 177 182 191 230 210 231 233 232 238 239 215 231 222 238 197 210 213 228 322 167 163 158 161 168 171 180
333 332 331 331 328 320 314 282 227 246 224 227 268 251 141 62 81 217 183 205 182 178 199 190 219 229 220 216 228 217 218 238 221 209 203 217 156 161 210 164 159 163 168 176 179
332 328 329 330 327 318 317 212 210 204 228 326 29 348 113 107 212 153 183 168 179 196 199 198 213 214 215 228 237 266 239 228 214 177 228 220 175 152 193 166 158 166 172 180 183
332 329 330 330 326 315 295 14 32 339 280 173 198 212 254 294 169 130 201 206 202 207 210 189 221 224 228 231 231 252 258 262 234 191 206 225 231 188 170 174 164 173 174 180 182
331 329 328 327 321 295 12 24 315 298 252 164 200 238 153 252 284 93 232 222 215 214 207 227 215 221 233 231 236 233 241 244 248 236 209 234 225 235 227 172 165 176 178 182 187
329 327 325 324 302 357 167 349 299 253 256 142 202 150 211 267 198 273 323 288 228 238 233 226 245 219 218 234 228 237 220 257 257 255 225 222 240 277 279 190 175 179 185 182 185
327 325 321 314 315 282 343 314 312 220 251 147 123 54 198 225 91 149 232 236 264 222 252 227 228 240 222 234 226 242 251 227 240 253 260 248 226 190 205 197 177 188 185 188 186
326 324 326 227 230 1 310 314 227 229 190 124 131 171 203 198 175 131 218 225 313 283 270 264 261 235 244 226 236 239 243 255 245 233 241 237 246 229 205 231 191 187 188 195 187
324 320 316 302 335 319 298 250 232 252 164 126 150 205 266 152 177 254 228 217 242 228 231 231 238 245 246 252 216 214 228 223 224 222 235 225 234 244 202 198 241 182 191 189 192
320 314 215 260 321 300 270 247 257 41 48 67 231 214 256 120 212 227 245 245 197 270 285 277 221 215 216 231 235 217 228 226 220 222 233 225 223 224 249 210 203 289 182 191 190
314 222 267 352 327 282 251 239 7 22 15 342 292 247 254 160 275 211 241 288 20 347 292 272 246 172 261 221 230 234 218 239 258 250 254 222 218 237 219 237 170 214 180 218 184
304 247 54 335 308 251 244 324 43 16 342 289 289 315 297 200 204 200 263 91 253 277 312 296 280 276 248 264 269 262 248 223 235 245 251 245 238 212 216 223 227 224 239 183 202
259 235 29 332 254 242 284 56 44 61 348 328 322 303 284 291 303 273 295 94 222 289 294 300 285 269 266 215 249 222 250 256 262 224 244 249 245 236 197 210 226 218 220 230 197
274 274 8 308 247 323 29 14 12 6 64 320 299 280 280 293 292 279 274 280 55 305 294 290 288 265 254 233 249 253 250 235 246 242 227 248 250 284 211 194 213 217 213 222 222
340 31 18 297 325 86 121 95 7 353 359 344 319 316 339 297 310 298 276 299 13 266 280 291 235 255 251 261 262 260 250 250 265 255 240 227 234 268 131 305 213 213 230 226 220
290 207 105 54 49 26 15 54 35 76 345 329 310 304 298 285 277 262 272 322 274 263 29 311 276 271 273 278 336 269 230 248 245 245 243 249 231 240 148 180 232 240 216 228 214
345 56 347 15 34 28 14 7 40 13 18 329 277 329 308 292 276 249 256 258 228 221 231 250 257 264 267 273 273 283 289 252 239 259 259 242 242 257 241 205 204 245 242 238 301
355 7 67 39 35 5 43 64 7 336 304 319 302 340 278 277 278 294 294 296 276 256 255 244 249 276 274 278 265 261 256 253 261 253 255 265 275 276 296 332 212 228 279 340 303
55 56 321 140 34 34 25 7 329 296 277 295 312 304 290 294 316 279 280 267 258 269 274 256 252 259 263 259 264 243 241 241 241 242 245 242 250 266 267 281 342 240 293 304 268